Year,Month,Day,Hour,Minute,Value (Times are PST for temperature in C)
2015,01,25,00,00,9.50
2015,01,25,00,01,9.50
2015,01,25,00,02,9.60
2015,01,25,00,03,9.60
2015,01,25,00,04,9.60
2015,01,25,00,05,9.60
2015,01,25,00,06,9.60
2015,01,25,00,07,9.60
2015,01,25,00,08,9.60
2015,01,25,00,09,9.60
2015,01,25,00,10,9.60
2015,01,25,00,11,9.60
2015,01,25,00,12,9.60
2015,01,25,00,13,9.60
2015,01,25,00,14,9.60
2015,01,25,00,15,9.60
2015,01,25,00,16,9.60
2015,01,25,00,17,9.60
2015,01,25,00,18,9.50
2015,01,25,00,19,9.50
2015,01,25,00,20,9.50
2015,01,25,00,21,9.40
2015,01,25,00,22,9.40
2015,01,25,00,23,9.40
2015,01,25,00,24,9.40
2015,01,25,00,25,9.30
2015,01,25,00,26,9.30
2015,01,25,00,27,9.30
2015,01,25,00,28,9.30
2015,01,25,00,29,9.30
2015,01,25,00,30,9.30
2015,01,25,00,31,9.30
2015,01,25,00,32,9.30
2015,01,25,00,33,9.30
2015,01,25,00,34,9.20
2015,01,25,00,35,9.30
2015,01,25,00,36,9.20
2015,01,25,00,37,9.20
2015,01,25,00,38,9.20
2015,01,25,00,39,9.20
2015,01,25,00,40,9.20
2015,01,25,00,41,9.20
2015,01,25,00,42,9.20
2015,01,25,00,43,9.20
2015,01,25,00,44,9.20
2015,01,25,00,45,9.20
2015,01,25,00,46,9.20
2015,01,25,00,47,9.20
2015,01,25,00,48,9.10
2015,01,25,00,49,9.10
2015,01,25,00,50,9.10
2015,01,25,00,51,9.00
2015,01,25,00,52,8.90
2015,01,25,00,53,8.90
2015,01,25,00,54,8.90
2015,01,25,00,55,8.90
2015,01,25,00,56,8.80
2015,01,25,00,57,8.80
2015,01,25,00,58,8.80
2015,01,25,00,59,8.80
2015,01,25,01,00,8.80
2015,01,25,01,01,8.80
2015,01,25,01,02,8.80
2015,01,25,01,03,8.80
2015,01,25,01,04,8.80
2015,01,25,01,05,8.80
2015,01,25,01,06,8.80
2015,01,25,01,07,8.80
2015,01,25,01,08,8.80
2015,01,25,01,09,8.80
2015,01,25,01,10,8.80
2015,01,25,01,11,8.80
2015,01,25,01,12,8.80
2015,01,25,01,13,8.70
2015,01,25,01,14,8.70
2015,01,25,01,15,8.70
2015,01,25,01,16,8.70
2015,01,25,01,17,8.70
2015,01,25,01,18,8.70
2015,01,25,01,19,8.70
2015,01,25,01,20,8.70
2015,01,25,01,21,8.70
2015,01,25,01,22,8.70
2015,01,25,01,23,8.60
2015,01,25,01,24,8.60
2015,01,25,01,25,8.60
2015,01,25,01,26,8.60
2015,01,25,01,27,8.60
2015,01,25,01,28,8.60
2015,01,25,01,29,8.60
2015,01,25,01,30,8.60
2015,01,25,01,31,8.60
2015,01,25,01,32,8.70
2015,01,25,01,33,8.70
2015,01,25,01,34,8.70
2015,01,25,01,35,8.70
2015,01,25,01,36,8.70
2015,01,25,01,37,8.70
2015,01,25,01,38,8.70
2015,01,25,01,39,8.70
2015,01,25,01,40,8.70
2015,01,25,01,41,8.70
2015,01,25,01,42,8.70
2015,01,25,01,43,8.70
2015,01,25,01,44,8.70
2015,01,25,01,45,8.70
2015,01,25,01,46,8.60
2015,01,25,01,47,8.60
2015,01,25,01,48,8.60
2015,01,25,01,49,8.60
2015,01,25,01,50,8.60
2015,01,25,01,51,8.60
2015,01,25,01,52,8.60
2015,01,25,01,53,8.60
2015,01,25,01,54,8.60
2015,01,25,01,55,8.60
2015,01,25,01,56,8.60
2015,01,25,01,57,8.50
2015,01,25,01,58,8.50
2015,01,25,01,59,8.40
2015,01,25,02,00,8.40
2015,01,25,02,01,8.30
2015,01,25,02,02,8.30
2015,01,25,02,03,8.30
2015,01,25,02,04,8.20
2015,01,25,02,05,8.20
2015,01,25,02,06,8.20
2015,01,25,02,07,8.20
2015,01,25,02,08,8.10
2015,01,25,02,09,8.10
2015,01,25,02,10,8.10
2015,01,25,02,11,8.10
2015,01,25,02,12,8.10
2015,01,25,02,13,8.10
2015,01,25,02,14,8.10
2015,01,25,02,15,8.10
2015,01,25,02,16,8.10
2015,01,25,02,17,8.10
2015,01,25,02,18,8.10
2015,01,25,02,19,8.10
2015,01,25,02,20,8.10
2015,01,25,02,21,8.10
2015,01,25,02,22,8.10
2015,01,25,02,23,8.10
2015,01,25,02,24,8.10
2015,01,25,02,25,8.10
2015,01,25,02,26,8.10
2015,01,25,02,27,8.10
2015,01,25,02,28,8.10
2015,01,25,02,29,8.10
2015,01,25,02,30,8.00
2015,01,25,02,31,8.00
2015,01,25,02,32,8.00
2015,01,25,02,33,8.00
2015,01,25,02,34,8.00
2015,01,25,02,35,7.90
2015,01,25,02,36,7.90
2015,01,25,02,37,7.90
2015,01,25,02,38,7.90
2015,01,25,02,39,7.80
2015,01,25,02,40,7.80
2015,01,25,02,41,7.80
2015,01,25,02,42,7.80
2015,01,25,02,43,7.80
2015,01,25,02,44,7.80
2015,01,25,02,45,7.70
2015,01,25,02,46,7.70
2015,01,25,02,47,7.80
2015,01,25,02,48,7.80
2015,01,25,02,49,7.80
2015,01,25,02,50,7.80
2015,01,25,02,51,7.80
2015,01,25,02,52,7.80
2015,01,25,02,53,7.80
2015,01,25,02,54,7.80
2015,01,25,02,55,7.80
2015,01,25,02,56,7.80
2015,01,25,02,57,7.80
2015,01,25,02,58,7.80
2015,01,25,02,59,7.80
2015,01,25,03,00,7.80
2015,01,25,03,01,7.80
2015,01,25,03,02,7.80
2015,01,25,03,03,7.80
2015,01,25,03,04,7.80
2015,01,25,03,05,7.80
2015,01,25,03,06,7.80
2015,01,25,03,07,7.80
2015,01,25,03,08,7.80
2015,01,25,03,09,7.80
2015,01,25,03,10,7.80
2015,01,25,03,11,7.80
2015,01,25,03,12,7.80
2015,01,25,03,13,7.80
2015,01,25,03,14,7.80
2015,01,25,03,15,7.70
2015,01,25,03,16,7.70
2015,01,25,03,17,7.60
2015,01,25,03,18,7.60
2015,01,25,03,19,7.60
2015,01,25,03,20,7.60
2015,01,25,03,21,7.60
2015,01,25,03,22,7.50
2015,01,25,03,23,7.50
2015,01,25,03,24,7.50
2015,01,25,03,25,7.50
2015,01,25,03,26,7.50
2015,01,25,03,27,7.50
2015,01,25,03,28,7.50
2015,01,25,03,29,7.50
2015,01,25,03,30,7.40
2015,01,25,03,31,7.40
2015,01,25,03,32,7.40
2015,01,25,03,33,7.40
2015,01,25,03,34,7.40
2015,01,25,03,35,7.30
2015,01,25,03,36,7.30
2015,01,25,03,37,7.30
2015,01,25,03,38,7.30
2015,01,25,03,39,7.30
2015,01,25,03,40,7.30
2015,01,25,03,41,7.30
2015,01,25,03,42,7.30
2015,01,25,03,43,7.30
2015,01,25,03,44,7.30
2015,01,25,03,45,7.30
2015,01,25,03,46,7.30
2015,01,25,03,47,7.30
2015,01,25,03,48,7.30
2015,01,25,03,49,7.30
2015,01,25,03,50,7.30
2015,01,25,03,51,7.30
2015,01,25,03,52,7.30
2015,01,25,03,53,7.30
2015,01,25,03,54,7.20
2015,01,25,03,55,7.20
2015,01,25,03,56,7.20
2015,01,25,03,57,7.20
2015,01,25,03,58,7.20
2015,01,25,03,59,7.20
2015,01,25,04,00,7.20
2015,01,25,04,01,7.10
2015,01,25,04,02,7.10
2015,01,25,04,03,7.10
2015,01,25,04,04,7.10
2015,01,25,04,05,7.10
2015,01,25,04,06,7.10
2015,01,25,04,07,7.10
2015,01,25,04,08,7.10
2015,01,25,04,09,7.10
2015,01,25,04,10,7.10
2015,01,25,04,11,7.10
2015,01,25,04,12,7.10
2015,01,25,04,13,7.10
2015,01,25,04,14,7.10
2015,01,25,04,15,7.10
2015,01,25,04,16,7.10
2015,01,25,04,17,7.00
2015,01,25,04,18,7.00
2015,01,25,04,19,7.00
2015,01,25,04,20,7.00
2015,01,25,04,21,7.00
2015,01,25,04,22,7.00
2015,01,25,04,23,7.00
2015,01,25,04,24,6.90
2015,01,25,04,25,6.90
2015,01,25,04,26,6.90
2015,01,25,04,27,6.90
2015,01,25,04,28,6.90
2015,01,25,04,29,6.90
2015,01,25,04,30,6.90
2015,01,25,04,31,6.90
2015,01,25,04,32,6.90
2015,01,25,04,33,6.90
2015,01,25,04,34,6.80
2015,01,25,04,35,6.80
2015,01,25,04,36,6.80
2015,01,25,04,37,6.80
2015,01,25,04,38,6.80
2015,01,25,04,39,6.80
2015,01,25,04,40,6.70
2015,01,25,04,41,6.70
2015,01,25,04,42,6.70
2015,01,25,04,43,6.70
2015,01,25,04,44,6.70
2015,01,25,04,45,6.70
2015,01,25,04,46,6.70
2015,01,25,04,47,6.70
2015,01,25,04,48,6.70
2015,01,25,04,49,6.70
2015,01,25,04,50,6.70
2015,01,25,04,51,6.70
2015,01,25,04,52,6.70
2015,01,25,04,53,6.70
2015,01,25,04,54,6.70
2015,01,25,04,55,6.70
2015,01,25,04,56,6.70
2015,01,25,04,57,6.70
2015,01,25,04,58,6.70
2015,01,25,04,59,6.70
2015,01,25,05,00,6.60
2015,01,25,05,01,6.60
2015,01,25,05,02,6.60
2015,01,25,05,03,6.60
2015,01,25,05,04,6.60
2015,01,25,05,05,6.60
2015,01,25,05,06,6.60
2015,01,25,05,07,6.60
2015,01,25,05,08,6.60
2015,01,25,05,09,6.60
2015,01,25,05,10,6.60
2015,01,25,05,11,6.60
2015,01,25,05,12,6.60
2015,01,25,05,13,6.60
2015,01,25,05,14,6.60
2015,01,25,05,15,6.60
2015,01,25,05,16,6.60
2015,01,25,05,17,6.60
2015,01,25,05,18,6.60
2015,01,25,05,19,6.60
2015,01,25,05,20,6.60
2015,01,25,05,21,6.60
2015,01,25,05,22,6.60
2015,01,25,05,23,6.60
2015,01,25,05,24,6.60
2015,01,25,05,25,6.60
2015,01,25,05,26,6.60
2015,01,25,05,27,6.50
2015,01,25,05,28,6.50
2015,01,25,05,29,6.50
2015,01,25,05,30,6.50
2015,01,25,05,31,6.50
2015,01,25,05,32,6.50
2015,01,25,05,33,6.50
2015,01,25,05,34,6.40
2015,01,25,05,35,6.40
2015,01,25,05,36,6.40
2015,01,25,05,37,6.40
2015,01,25,05,38,6.40
2015,01,25,05,39,6.40
2015,01,25,05,40,6.30
2015,01,25,05,41,6.30
2015,01,25,05,42,6.30
2015,01,25,05,43,6.30
2015,01,25,05,44,6.30
2015,01,25,05,45,6.30
2015,01,25,05,46,6.30
2015,01,25,05,47,6.30
2015,01,25,05,48,6.30
2015,01,25,05,49,6.20
2015,01,25,05,50,6.20
2015,01,25,05,51,6.20
2015,01,25,05,52,6.20
2015,01,25,05,53,6.20
2015,01,25,05,54,6.20
2015,01,25,05,55,6.20
2015,01,25,05,56,6.20
2015,01,25,05,57,6.20
2015,01,25,05,58,6.20
2015,01,25,05,59,6.20
2015,01,25,06,00,6.20
2015,01,25,06,01,6.20
2015,01,25,06,02,6.20
2015,01,25,06,03,6.20
2015,01,25,06,04,6.20
2015,01,25,06,05,6.20
2015,01,25,06,06,6.20
2015,01,25,06,07,6.20
2015,01,25,06,08,6.20
2015,01,25,06,09,6.20
2015,01,25,06,10,6.20
2015,01,25,06,11,6.20
2015,01,25,06,12,6.30
2015,01,25,06,13,6.30
2015,01,25,06,14,6.30
2015,01,25,06,15,6.20
2015,01,25,06,16,6.20
2015,01,25,06,17,6.20
2015,01,25,06,18,6.20
2015,01,25,06,19,6.20
2015,01,25,06,20,6.20
2015,01,25,06,21,6.20
2015,01,25,06,22,6.20
2015,01,25,06,23,6.10
2015,01,25,06,24,6.10
2015,01,25,06,25,6.10
2015,01,25,06,26,6.10
2015,01,25,06,27,6.10
2015,01,25,06,28,6.10
2015,01,25,06,29,6.10
2015,01,25,06,30,6.10
2015,01,25,06,31,6.10
2015,01,25,06,32,6.10
2015,01,25,06,33,6.10
2015,01,25,06,34,6.10
2015,01,25,06,35,6.10
2015,01,25,06,36,6.10
2015,01,25,06,37,6.10
2015,01,25,06,38,6.10
2015,01,25,06,39,6.10
2015,01,25,06,40,6.10
2015,01,25,06,41,6.00
2015,01,25,06,42,6.00
2015,01,25,06,43,6.00
2015,01,25,06,44,6.00
2015,01,25,06,45,6.00
2015,01,25,06,46,6.00
2015,01,25,06,47,5.90
2015,01,25,06,48,5.90
2015,01,25,06,49,5.90
2015,01,25,06,50,5.90
2015,01,25,06,51,5.90
2015,01,25,06,52,5.90
2015,01,25,06,53,5.90
2015,01,25,06,54,5.90
2015,01,25,06,55,5.90
2015,01,25,06,56,5.90
2015,01,25,06,57,5.90
2015,01,25,06,58,5.90
2015,01,25,06,59,5.90
2015,01,25,07,00,5.90
2015,01,25,07,01,5.90
2015,01,25,07,02,5.90
2015,01,25,07,03,5.90
2015,01,25,07,04,5.90
2015,01,25,07,05,5.80
2015,01,25,07,06,5.80
2015,01,25,07,07,5.80
2015,01,25,07,08,5.80
2015,01,25,07,09,5.80
2015,01,25,07,10,5.80
2015,01,25,07,11,5.80
2015,01,25,07,12,5.90
2015,01,25,07,13,5.90
2015,01,25,07,14,5.90
2015,01,25,07,15,5.90
2015,01,25,07,16,5.90
2015,01,25,07,17,5.90
2015,01,25,07,18,5.90
2015,01,25,07,19,5.90
2015,01,25,07,20,5.90
2015,01,25,07,21,5.90
2015,01,25,07,22,5.90
2015,01,25,07,23,5.90
2015,01,25,07,24,5.90
2015,01,25,07,25,5.90
2015,01,25,07,26,5.90
2015,01,25,07,27,5.90
2015,01,25,07,28,5.90
2015,01,25,07,29,5.90
2015,01,25,07,30,6.00
2015,01,25,07,31,6.00
2015,01,25,07,32,6.00
2015,01,25,07,33,6.00
2015,01,25,07,34,6.00
2015,01,25,07,35,6.00
2015,01,25,07,36,6.10
2015,01,25,07,37,6.10
2015,01,25,07,38,6.10
2015,01,25,07,39,6.10
2015,01,25,07,40,6.10
2015,01,25,07,41,6.10
2015,01,25,07,42,6.10
2015,01,25,07,43,6.10
2015,01,25,07,44,6.10
2015,01,25,07,45,6.10
2015,01,25,07,46,6.10
2015,01,25,07,47,6.10
2015,01,25,07,48,6.10
2015,01,25,07,49,6.10
2015,01,25,07,50,6.10
2015,01,25,07,51,6.10
2015,01,25,07,52,6.10
2015,01,25,07,53,6.10
2015,01,25,07,54,6.10
2015,01,25,07,55,6.10
2015,01,25,07,56,6.10
2015,01,25,07,57,6.00
2015,01,25,07,58,6.00
2015,01,25,07,59,6.00
2015,01,25,08,00,6.00
2015,01,25,08,01,6.00
2015,01,25,08,02,6.00
2015,01,25,08,03,6.00
2015,01,25,08,04,6.00
2015,01,25,08,05,6.00
2015,01,25,08,06,6.00
2015,01,25,08,07,6.00
2015,01,25,08,08,6.00
2015,01,25,08,09,6.00
2015,01,25,08,10,6.00
2015,01,25,08,11,6.00
2015,01,25,08,12,6.00
2015,01,25,08,13,6.00
2015,01,25,08,14,6.00
2015,01,25,08,15,5.90
2015,01,25,08,16,5.90
2015,01,25,08,17,5.90
2015,01,25,08,18,5.90
2015,01,25,08,19,5.90
2015,01,25,08,20,5.90
2015,01,25,08,21,5.90
2015,01,25,08,22,5.90
2015,01,25,08,23,5.90
2015,01,25,08,24,5.90
2015,01,25,08,25,5.90
2015,01,25,08,26,5.90
2015,01,25,08,27,5.90
2015,01,25,08,28,5.90
2015,01,25,08,29,5.90
2015,01,25,08,30,5.90
2015,01,25,08,31,6.00
2015,01,25,08,32,6.00
2015,01,25,08,33,6.00
2015,01,25,08,34,6.00
2015,01,25,08,35,6.00
2015,01,25,08,36,6.00
2015,01,25,08,37,6.00
2015,01,25,08,38,6.00
2015,01,25,08,39,6.00
2015,01,25,08,40,6.00
2015,01,25,08,41,6.00
2015,01,25,08,42,6.00
2015,01,25,08,43,6.10
2015,01,25,08,44,6.10
2015,01,25,08,45,6.10
2015,01,25,08,46,6.10
2015,01,25,08,47,6.10
2015,01,25,08,48,6.20
2015,01,25,08,49,6.20
2015,01,25,08,50,6.20
2015,01,25,08,51,6.20
2015,01,25,08,52,6.20
2015,01,25,08,53,6.30
2015,01,25,08,54,6.30
2015,01,25,08,55,6.30
2015,01,25,08,56,6.30
2015,01,25,08,57,6.40
2015,01,25,08,58,6.40
2015,01,25,08,59,6.40
2015,01,25,09,00,6.40
2015,01,25,09,01,6.50
2015,01,25,09,02,6.50
2015,01,25,09,03,6.50
2015,01,25,09,04,6.60
2015,01,25,09,05,6.60
2015,01,25,09,06,6.60
2015,01,25,09,07,6.60
2015,01,25,09,08,6.60
2015,01,25,09,09,6.70
2015,01,25,09,10,6.70
2015,01,25,09,11,6.70
2015,01,25,09,12,6.70
2015,01,25,09,13,6.80
2015,01,25,09,14,6.80
2015,01,25,09,15,6.80
2015,01,25,09,16,6.80
2015,01,25,09,17,6.80
2015,01,25,09,18,6.80
2015,01,25,09,19,6.80
2015,01,25,09,20,6.80
2015,01,25,09,21,6.80
2015,01,25,09,22,6.70
2015,01,25,09,23,6.70
2015,01,25,09,24,6.70
2015,01,25,09,25,6.70
2015,01,25,09,26,6.60
2015,01,25,09,27,6.60
2015,01,25,09,28,6.60
2015,01,25,09,29,6.60
2015,01,25,09,30,6.60
2015,01,25,09,31,6.60
2015,01,25,09,32,6.60
2015,01,25,09,33,6.60
2015,01,25,09,34,6.60
2015,01,25,09,35,6.60
2015,01,25,09,36,6.60
2015,01,25,09,37,6.60
2015,01,25,09,38,6.60
2015,01,25,09,39,6.60
2015,01,25,09,40,6.60
2015,01,25,09,41,6.60
2015,01,25,09,42,6.60
2015,01,25,09,43,6.60
2015,01,25,09,44,6.60
2015,01,25,09,45,6.60
2015,01,25,09,46,6.60
2015,01,25,09,47,6.60
2015,01,25,09,48,6.70
2015,01,25,09,49,6.70
2015,01,25,09,50,6.70
2015,01,25,09,51,6.70
2015,01,25,09,52,6.70
2015,01,25,09,53,6.80
2015,01,25,09,54,6.80
2015,01,25,09,55,6.80
2015,01,25,09,56,6.90
2015,01,25,09,57,6.90
2015,01,25,09,58,6.90
2015,01,25,09,59,6.90
2015,01,25,10,00,6.80
2015,01,25,10,01,6.80
2015,01,25,10,02,6.80
2015,01,25,10,03,6.80
2015,01,25,10,04,6.80
2015,01,25,10,05,6.80
2015,01,25,10,06,6.80
2015,01,25,10,07,6.80
2015,01,25,10,08,6.80
2015,01,25,10,09,6.90
2015,01,25,10,10,6.90
2015,01,25,10,11,6.90
2015,01,25,10,12,6.90
2015,01,25,10,13,7.00
2015,01,25,10,14,7.00
2015,01,25,10,15,7.00
2015,01,25,10,16,7.10
2015,01,25,10,17,7.10
2015,01,25,10,18,7.10
2015,01,25,10,19,7.20
2015,01,25,10,20,7.20
2015,01,25,10,21,7.20
2015,01,25,10,22,7.20
2015,01,25,10,23,7.20
2015,01,25,10,24,7.20
2015,01,25,10,25,7.20
2015,01,25,10,26,7.20
2015,01,25,10,27,7.20
2015,01,25,10,28,7.20
2015,01,25,10,29,7.20
2015,01,25,10,30,7.20
2015,01,25,10,31,7.20
2015,01,25,10,32,7.20
2015,01,25,10,33,7.20
2015,01,25,10,34,7.20
2015,01,25,10,35,7.30
2015,01,25,10,36,7.30
2015,01,25,10,37,7.30
2015,01,25,10,38,7.30
2015,01,25,10,39,7.30
2015,01,25,10,40,7.30
2015,01,25,10,41,7.30
2015,01,25,10,42,7.30
2015,01,25,10,43,7.30
2015,01,25,10,44,7.30
2015,01,25,10,45,7.30
2015,01,25,10,46,7.30
2015,01,25,10,47,7.30
2015,01,25,10,48,7.30
2015,01,25,10,49,7.40
2015,01,25,10,50,7.40
2015,01,25,10,51,7.40
2015,01,25,10,52,7.40
2015,01,25,10,53,7.50
2015,01,25,10,54,7.50
2015,01,25,10,55,7.60
2015,01,25,10,56,7.60
2015,01,25,10,57,7.70
2015,01,25,10,58,7.70
2015,01,25,10,59,7.70
2015,01,25,11,00,7.80
2015,01,25,11,01,7.80
2015,01,25,11,02,7.80
2015,01,25,11,03,7.80
2015,01,25,11,04,7.80
2015,01,25,11,05,7.80
2015,01,25,11,06,7.80
2015,01,25,11,07,7.80
2015,01,25,11,08,7.80
2015,01,25,11,09,7.90
2015,01,25,11,10,7.90
2015,01,25,11,11,7.90
2015,01,25,11,12,7.90
2015,01,25,11,13,7.90
2015,01,25,11,14,7.90
2015,01,25,11,15,7.90
2015,01,25,11,16,7.90
2015,01,25,11,17,8.00
2015,01,25,11,18,8.00
2015,01,25,11,19,8.00
2015,01,25,11,20,8.00
2015,01,25,11,21,8.00
2015,01,25,11,22,8.00
2015,01,25,11,23,8.00
2015,01,25,11,24,8.00
2015,01,25,11,25,8.10
2015,01,25,11,26,8.10
2015,01,25,11,27,8.10
2015,01,25,11,28,8.10
2015,01,25,11,29,8.10
2015,01,25,11,30,8.20
2015,01,25,11,31,8.20
2015,01,25,11,32,8.20
2015,01,25,11,33,8.20
2015,01,25,11,34,8.20
2015,01,25,11,35,8.20
2015,01,25,11,36,8.30
2015,01,25,11,37,8.30
2015,01,25,11,38,8.30
2015,01,25,11,39,8.30
2015,01,25,11,40,8.30
2015,01,25,11,41,8.30
2015,01,25,11,42,8.30
2015,01,25,11,43,8.30
2015,01,25,11,44,8.30
2015,01,25,11,45,8.30
2015,01,25,11,46,8.30
2015,01,25,11,47,8.40
2015,01,25,11,48,8.40
2015,01,25,11,49,8.40
2015,01,25,11,50,8.40
2015,01,25,11,51,8.50
2015,01,25,11,52,8.50
2015,01,25,11,53,8.50
2015,01,25,11,54,8.60
2015,01,25,11,55,8.60
2015,01,25,11,56,8.60
2015,01,25,11,57,8.60
2015,01,25,11,58,8.60
2015,01,25,11,59,8.50
2015,01,25,12,00,8.50
2015,01,25,12,01,8.50
2015,01,25,12,02,8.50
2015,01,25,12,03,8.40
2015,01,25,12,04,8.40
2015,01,25,12,05,8.40
2015,01,25,12,06,8.40
2015,01,25,12,07,8.40
2015,01,25,12,08,8.40
2015,01,25,12,09,8.40
2015,01,25,12,10,8.40
2015,01,25,12,11,8.40
2015,01,25,12,12,8.40
2015,01,25,12,13,8.40
2015,01,25,12,14,8.40
2015,01,25,12,15,8.40
2015,01,25,12,16,8.50
2015,01,25,12,17,8.50
2015,01,25,12,18,8.50
2015,01,25,12,19,8.60
2015,01,25,12,20,8.60
2015,01,25,12,21,8.60
2015,01,25,12,22,8.60
2015,01,25,12,23,8.70
2015,01,25,12,24,8.70
2015,01,25,12,25,8.70
2015,01,25,12,26,8.80
2015,01,25,12,27,8.80
2015,01,25,12,28,8.90
2015,01,25,12,29,8.90
2015,01,25,12,30,9.00
2015,01,25,12,31,9.00
2015,01,25,12,32,9.10
2015,01,25,12,33,9.10
2015,01,25,12,34,9.20
2015,01,25,12,35,9.20
2015,01,25,12,36,9.30
2015,01,25,12,37,9.30
2015,01,25,12,38,9.30
2015,01,25,12,39,9.30
2015,01,25,12,40,9.30
2015,01,25,12,41,9.20
2015,01,25,12,42,9.20
2015,01,25,12,43,9.20
2015,01,25,12,44,9.20
2015,01,25,12,45,9.20
2015,01,25,12,46,9.20
2015,01,25,12,47,9.20
2015,01,25,12,48,9.20
2015,01,25,12,49,9.20
2015,01,25,12,50,9.20
2015,01,25,12,51,9.30
2015,01,25,12,52,9.30
2015,01,25,12,53,9.30
2015,01,25,12,54,9.40
2015,01,25,12,55,9.40
2015,01,25,12,56,9.40
2015,01,25,12,57,9.50
2015,01,25,12,58,9.50
2015,01,25,12,59,9.60
2015,01,25,13,00,9.60
2015,01,25,13,01,9.60
2015,01,25,13,02,9.70
2015,01,25,13,03,9.70
2015,01,25,13,04,9.70
2015,01,25,13,05,9.80
2015,01,25,13,06,9.80
2015,01,25,13,07,9.80
2015,01,25,13,08,9.80
2015,01,25,13,09,9.90
2015,01,25,13,10,9.90
2015,01,25,13,11,9.90
2015,01,25,13,12,9.90
2015,01,25,13,13,9.90
2015,01,25,13,14,10.00
2015,01,25,13,15,10.00
2015,01,25,13,16,10.00
2015,01,25,13,17,10.00
2015,01,25,13,18,10.00
2015,01,25,13,19,10.00
2015,01,25,13,20,10.00
2015,01,25,13,21,10.00
2015,01,25,13,22,10.00
2015,01,25,13,23,10.00
2015,01,25,13,24,10.00
2015,01,25,13,25,10.00
2015,01,25,13,26,9.90
2015,01,25,13,27,9.90
2015,01,25,13,28,9.90
2015,01,25,13,29,9.90
2015,01,25,13,30,9.80
2015,01,25,13,31,9.80
2015,01,25,13,32,9.80
2015,01,25,13,33,9.70
2015,01,25,13,34,9.70
2015,01,25,13,35,9.70
2015,01,25,13,36,9.70
2015,01,25,13,37,9.70
2015,01,25,13,38,9.70
2015,01,25,13,39,9.70
2015,01,25,13,40,9.70
2015,01,25,13,41,9.70
2015,01,25,13,42,9.70
2015,01,25,13,43,9.70
2015,01,25,13,44,9.70
2015,01,25,13,45,9.80
2015,01,25,13,46,9.80
2015,01,25,13,47,9.80
2015,01,25,13,48,9.80
2015,01,25,13,49,9.80
2015,01,25,13,50,9.80
2015,01,25,13,51,9.90
2015,01,25,13,52,9.90
2015,01,25,13,53,9.90
2015,01,25,13,54,9.90
2015,01,25,13,55,9.90
2015,01,25,13,56,10.00
2015,01,25,13,57,10.00
2015,01,25,13,58,10.00
2015,01,25,13,59,10.10
2015,01,25,14,00,10.10
2015,01,25,14,01,10.10
2015,01,25,14,02,10.10
2015,01,25,14,03,10.10
2015,01,25,14,04,10.10
2015,01,25,14,05,10.20
2015,01,25,14,06,10.20
2015,01,25,14,07,10.20
2015,01,25,14,08,10.20
2015,01,25,14,09,10.20
2015,01,25,14,10,10.20
2015,01,25,14,11,10.30
2015,01,25,14,12,10.30
2015,01,25,14,13,10.30
2015,01,25,14,14,10.30
2015,01,25,14,15,10.30
2015,01,25,14,16,10.30
2015,01,25,14,17,10.30
2015,01,25,14,18,10.30
2015,01,25,14,19,10.30
2015,01,25,14,20,10.30
2015,01,25,14,21,10.30
2015,01,25,14,22,10.30
2015,01,25,14,23,10.30
2015,01,25,14,24,10.40
2015,01,25,14,25,10.40
2015,01,25,14,26,10.40
2015,01,25,14,27,10.40
2015,01,25,14,28,10.30
2015,01,25,14,29,10.30
2015,01,25,14,30,10.30
2015,01,25,14,31,10.30
2015,01,25,14,32,10.40
2015,01,25,14,33,10.40
2015,01,25,14,34,10.40
2015,01,25,14,35,10.40
2015,01,25,14,36,10.40
2015,01,25,14,37,10.40
2015,01,25,14,38,10.40
2015,01,25,14,39,10.40
2015,01,25,14,40,10.40
2015,01,25,14,41,10.50
2015,01,25,14,42,10.50
2015,01,25,14,43,10.50
2015,01,25,14,44,10.50
2015,01,25,14,45,10.60
2015,01,25,14,46,10.50
2015,01,25,14,47,10.50
2015,01,25,14,48,10.50
2015,01,25,14,49,10.50
2015,01,25,14,50,10.50
2015,01,25,14,51,10.50
2015,01,25,14,52,10.40
2015,01,25,14,53,10.40
2015,01,25,14,54,10.40
2015,01,25,14,55,10.30
2015,01,25,14,56,10.30
2015,01,25,14,57,10.30
2015,01,25,14,58,10.30
2015,01,25,14,59,10.30
2015,01,25,15,00,10.30
2015,01,25,15,01,10.30
2015,01,25,15,02,10.30
2015,01,25,15,03,10.40
2015,01,25,15,04,10.40
2015,01,25,15,05,10.40
2015,01,25,15,06,10.40
2015,01,25,15,07,10.40
2015,01,25,15,08,10.40
2015,01,25,15,09,10.40
2015,01,25,15,10,10.40
2015,01,25,15,11,10.40
2015,01,25,15,12,10.40
2015,01,25,15,13,10.40
2015,01,25,15,14,10.40
2015,01,25,15,15,10.40
2015,01,25,15,16,10.40
2015,01,25,15,17,10.40
2015,01,25,15,18,10.50
2015,01,25,15,19,10.50
2015,01,25,15,20,10.50
2015,01,25,15,21,10.60
2015,01,25,15,22,10.60
2015,01,25,15,23,10.60
2015,01,25,15,24,10.60
2015,01,25,15,25,10.60
2015,01,25,15,26,10.60
2015,01,25,15,27,10.70
2015,01,25,15,28,10.70
2015,01,25,15,29,10.70
2015,01,25,15,30,10.70
2015,01,25,15,31,10.70
2015,01,25,15,32,10.70
2015,01,25,15,33,10.80
2015,01,25,15,34,10.80
2015,01,25,15,35,10.70
2015,01,25,15,36,10.70
2015,01,25,15,37,10.70
2015,01,25,15,38,10.70
2015,01,25,15,39,10.70
2015,01,25,15,40,10.70
2015,01,25,15,41,10.70
2015,01,25,15,42,10.70
2015,01,25,15,43,10.70
2015,01,25,15,44,10.70
2015,01,25,15,45,10.70
2015,01,25,15,46,10.70
2015,01,25,15,47,10.70
2015,01,25,15,48,10.70
2015,01,25,15,49,10.70
2015,01,25,15,50,10.80
2015,01,25,15,51,10.80
2015,01,25,15,52,10.70
2015,01,25,15,53,10.70
2015,01,25,15,54,10.70
2015,01,25,15,55,10.70
2015,01,25,15,56,10.70
2015,01,25,15,57,10.70
2015,01,25,15,58,10.60
2015,01,25,15,59,10.60
2015,01,25,16,00,10.60
2015,01,25,16,01,10.60
2015,01,25,16,02,10.60
2015,01,25,16,03,10.60
2015,01,25,16,04,10.50
2015,01,25,16,05,10.50
2015,01,25,16,06,10.50
2015,01,25,16,07,10.50
2015,01,25,16,08,10.50
2015,01,25,16,09,10.50
2015,01,25,16,10,10.50
2015,01,25,16,11,10.60
2015,01,25,16,12,10.60
2015,01,25,16,13,10.60
2015,01,25,16,14,10.60
2015,01,25,16,15,10.60
2015,01,25,16,16,10.50
2015,01,25,16,17,10.50
2015,01,25,16,18,10.50
2015,01,25,16,19,10.50
2015,01,25,16,20,10.50
2015,01,25,16,21,10.50
2015,01,25,16,22,10.50
2015,01,25,16,23,10.50
2015,01,25,16,24,10.50
2015,01,25,16,25,10.50
2015,01,25,16,26,10.50
2015,01,25,16,27,10.50
2015,01,25,16,28,10.50
2015,01,25,16,29,10.50
2015,01,25,16,30,10.50
2015,01,25,16,31,10.50
2015,01,25,16,32,10.50
2015,01,25,16,33,10.50
2015,01,25,16,34,10.50
2015,01,25,16,35,10.50
2015,01,25,16,36,10.50
2015,01,25,16,37,10.50
2015,01,25,16,38,10.50
2015,01,25,16,39,10.50
2015,01,25,16,40,10.50
2015,01,25,16,41,10.50
2015,01,25,16,42,10.50
2015,01,25,16,43,10.50
2015,01,25,16,44,10.50
2015,01,25,16,45,10.50
2015,01,25,16,46,10.50
2015,01,25,16,47,10.50
2015,01,25,16,48,10.50
2015,01,25,16,49,10.50
2015,01,25,16,50,10.50
2015,01,25,16,51,10.50
2015,01,25,16,52,10.50
2015,01,25,16,53,10.50
2015,01,25,16,54,10.50
2015,01,25,16,55,10.50
2015,01,25,16,56,10.50
2015,01,25,16,57,10.50
2015,01,25,16,58,10.50
2015,01,25,16,59,10.50
2015,01,25,17,00,10.50
2015,01,25,17,01,10.50
2015,01,25,17,02,10.50
2015,01,25,17,03,10.50
2015,01,25,17,04,10.50
2015,01,25,17,05,10.40
2015,01,25,17,06,10.40
2015,01,25,17,07,10.40
2015,01,25,17,08,10.40
2015,01,25,17,09,10.40
2015,01,25,17,10,10.40
2015,01,25,17,11,10.40
2015,01,25,17,12,10.40
2015,01,25,17,13,10.40
2015,01,25,17,14,10.40
2015,01,25,17,15,10.30
2015,01,25,17,16,10.30
2015,01,25,17,17,10.30
2015,01,25,17,18,10.30
2015,01,25,17,19,10.30
2015,01,25,17,20,10.30
2015,01,25,17,21,10.20
2015,01,25,17,22,10.20
2015,01,25,17,23,10.20
2015,01,25,17,24,10.20
2015,01,25,17,25,10.10
2015,01,25,17,26,10.10
2015,01,25,17,27,10.10
2015,01,25,17,28,10.10
2015,01,25,17,29,10.00
2015,01,25,17,30,10.00
2015,01,25,17,31,10.00
2015,01,25,17,32,9.90
2015,01,25,17,33,9.90
2015,01,25,17,34,9.90
2015,01,25,17,35,9.90
2015,01,25,17,36,9.90
2015,01,25,17,37,9.80
2015,01,25,17,38,9.80
2015,01,25,17,39,9.80
2015,01,25,17,40,9.80
2015,01,25,17,41,9.80
2015,01,25,17,42,9.80
2015,01,25,17,43,9.80
2015,01,25,17,44,9.80
2015,01,25,17,45,9.80
2015,01,25,17,46,9.80
2015,01,25,17,47,9.80
2015,01,25,17,48,9.70
2015,01,25,17,49,9.70
2015,01,25,17,50,9.70
2015,01,25,17,51,9.70
2015,01,25,17,52,9.70
2015,01,25,17,53,9.70
2015,01,25,17,54,9.70
2015,01,25,17,55,9.70
2015,01,25,17,56,9.60